OSCAR 15 (UOSAT 4)

Satellite information

Favourite Embed

Satellite Type and Status

PAYLOADIN ORBIT

Key statistics

Satellite OSCAR 15 (UOSAT 4) at a glance.

Uptime

12950

Days in orbit

Revolutions

≈ 14.3

Per day

Orbit

SSO

Sun Synchronous Orbit

Inclination

98.8

Latest

Satellite identification and parameters

Extended collection of information and parameters for OSCAR 15 (UOSAT 4).

Object identification

Identified? True

Debris? False

Object name: OSCAR 15 (UOSAT 4)

International designator: 1990-005C

Object number (NORAD): 20438

Object ID (CCSDS): 20438

Country: UNITED KINGDOM (UK)

Current information (Y/N): Y

RCS size: MEDIUM

Orbital parameters

Period: 100.585 minutes

Inclination: 98.8357 deg

SMA: 7164.449 km

Apoapsis: 792.543 km

Periapsis: 780.086 km

RAAN: 234.2602 deg

Eccentricy: 0.0008694

Argument of periapsis: 284.3287 deg

Mean anomaly: 188.5019 deg

Mean motion: 14.31622578 rev/day

Mean motion (dot): 0.00000041 rev/day2

B* drag term: 0.000032742 1/REarth

Two-line elements (TLE)

Creation date: July 6, 2025, 10:26 p.m.

Reference frame: TEME

Reference center: EARTH

Epoch: July 6, 2025, 5:41 p.m. UTC

TLE line 0: 0 OSCAR 15 (UOSAT 4)

TLE line 1: 1 20438U 90005C 25187.73732103 .00000041 00000-0 32742-4 0 9997

TLE line 2: 2 20438 98.8357 234.2602 0008694 284.3287 188.5019 14.31622578851026

Live tracking on map

Real-time ground track for satellite OSCAR 15 (UOSAT 4).

In-orbit conjunctions

There are no conjunctions computed for OSCAR 15 (UOSAT 4), at the moment. Check back to stay up to date, as we update our databases every day.

Go to all conjunctions

Associated space launch

French Earth observation satellite

OSCAR 15 (UOSAT 4) was lifted into orbit during the mission ‘Ariane 40 | SPOT 2’, on board a Ariane 40 space rocket.

The launch took place on Jan. 22, 1990, 1:35 a.m. from Ariane Launch Area 2.

For more information about the launch, click the button.

Launch to space Ariane 40 | SPOT 2
Ariane 40 | SPOT 2

Agency: N/A

Status: Launch Successful

Launch date: Jan. 22, 1990, 1:35 a.m. UTC

Rocket: Ariane 40

Launch pad: Ariane Launch Area 2

Location: Guiana Space Centre, French Guiana

...

Latest news about this satellite

There are no fresh news available about this satellite. Check back as we update our databases every day.


Newsletter sign-up

Weekly statistics, charts and insights to help you stay on top of the space industry.